Regional Weather Roundup
Issued by NWS

Home | Current Version | Previous Version | Graphics & Text | Print | Product List | Glossary On
Versions: 1 2 3 4 5 6 7 8 9 10 11 12 13 14 15 16 17 18 19 20 21 22 23 24 25 26 27 28 29 30 31 32 33 34 35 36 37 38 39 40 41 42 43 44 45 46 47 48 49 50
000
ASUS43 KLSX 302059
RWRMO

WEATHER SUMMARY FOR MISSOURI
NATIONAL WEATHER SERVICE SPRINGFIELD MO
400 PM CDT TUE JUN 30 2015

NOTE: "FAIR" INDICATES FEW OR NO CLOUDS BELOW 12,000 FEET WITH NO
       SIGNIFICANT WEATHER AND/OR OBSTRUCTIONS TO VISIBILITY.
       CURRENT SKY AND/OR WEATHER CONDITIONS ARE NOT AVAILABLE FOR
       CHILLICOTHE AND FARMINGTON.

MOZ001>031-035>038-043-044-053-054-302200-
...NORTHERN AND WESTERN MISSOURI...

CITY           SKY/WX    TMP DP  RH WIND       PRES   REMARKS
KANSAS CTY INT CLOUDY    86  66  51 E6        29.92F
KANSAS C DTWN  CLOUDY    88  64  44 N7        29.90F
LEE`S SUMMIT   PTSUNNY   87  64  46 N5        29.93F
ST JOSEPH      CLOUDY    84  69  60 E8        29.91F
CHILLICOTHE      N/A     79  70  74 W3        29.92F
KIRKSVILLE     MOSUNNY   81  66  60 W9        29.91S

$$
MOZ066>068-077>081-088>096-101>105-302200-
...SOUTHWEST MISSOURI...

CITY           SKY/WX    TMP DP  RH WIND       PRES   REMARKS
SPRINGFIELD    PTSUNNY   86  67  52 VRB5      29.95F
JOPLIN         MOSUNNY   89  69  51 W6        29.93F HX  93

$$
MOZ032>034-039>042-045>050-055>058-069>072-302200-
...CENTRAL MISSOURI...

CITY           SKY/WX    TMP DP  RH WIND       PRES   REMARKS
COLUMBIA       MOSUNNY   82  68  62 W10       29.91F
JEFFERSON CITY SUNNY     84  65  52 W9        29.90F
ROLLA          SUNNY     81  68  64 W9        29.92F
SEDALIA        CLOUDY    83  70  64 W3        29.94S
OSAGE BEACH    PTSUNNY   82  70  65 NW5       29.93F

$$
MOZ051-052-059>065-302200-
...EAST CENTRAL MISSOURI...

CITY           SKY/WX    TMP DP  RH WIND       PRES   REMARKS
ST LOUIS INTL  MOSUNNY   86  66  51 W12       29.87F
SPIRIT OF STL  CLOUDY    83  70  64 W8        29.87F
ST CHARLES     SUNNY     85  69  58 W12       29.85F

$$
MOZ072>076-082>087-097>100-106>115-302200-
...SOUTH CENTRAL AND SOUTHEAST MISSOURI...

CITY           SKY/WX    TMP DP  RH WIND       PRES   REMARKS
CAPE GIRARDEAU MOSUNNY   85  67  54 W8        29.88F
FARMINGTON     SUNNY     81  66  61 W7        29.95S
POPLAR BLUFF   SUNNY     86  68  54 W7        29.89F
WEST PLAINS    MOSUNNY   84  67  56 W10       29.96F

$$


USA.gov is the U.S. government's official web portal to all federal, state and local government web resources and services.